Flag for Australia Weather past 2 weeks in Alice Springs, Northern Territory, Australia

Now
84 °F

Sunny.


Feels Like: 81 °F
Forecast: 50 / 76 °F
Wind: 20 mph from Northwest

Location: Alice Springs Aerodrome

Current Time: Sep 23, 2014 at 12:18:28 PM

Latest Report: Sep 23, 2014 at 11:30 AM


Visibility: 10 mi

Pressure: 29.95 "Hg

Humidity: 5%

Dew point: 5 °F

Location of Alice SpringsLocation

Historic Weather in Alice Springs — Graph

°F

Alice Springs temperature yesterday

Maximum temperature yesterday: 79 °F (at 3:30 PM)
Minimum temperature yesterday: 41 °F (at 6:30 AM)
Average temperature yesterday: 62 °F

Past Weeks' High & Low Weather Summary

 TemperatureHumidityPressure
High93 °F (Sep 8, 2:33 PM)67% (Sep 21, 4:30 AM)30.30 "Hg (Sep 21, 4:30 AM)
Low41 °F (Sep 22, 6:30 AM)2% (Sep 22, 5:30 PM)29.89 "Hg (Sep 8, 5:00 PM)
Average70 °F21%30.09 "Hg
* Reported Sep 8 10:30 AM — Sep 23 11:00 AM, Alice Springs, Weather by CustomWeather, © 2014

Note: Actual official high and low records may vary slightly from our data, if they occured in-between our weather recording intervals... More about our weather records

Advertising

Alice Springs weather history for previous 24 hours

 ConditionsComfort  
Time TempWeatherWind HumidityBarometerVisibility
11:00 AM
Sep 23
82 °FSunny.15 mph5%29.95 "Hg10 mi
10:30 AM81 °FSunny.18 mph7%29.98 "Hg10 mi
10:00 AM79 °FSunny.17 mph8%29.98 "Hg10 mi
9:30 AM77 °FSunny.20 mph10%29.98 "Hg10 mi
9:00 AM75 °FSunny.14 mph10%29.98 "Hg10 mi
8:30 AM73 °FSunny.18 mph12%29.95 "Hg10 mi
8:00 AM70 °FSunny.18 mph12%29.95 "Hg10 mi
7:30 AM68 °FSunny.14 mph12%29.95 "Hg10 mi
6:30 AM61 °FSunny.10 mph11%29.95 "Hg10 mi
6:00 AM59 °FSunny.8 mph14%29.95 "Hg10 mi
5:30 AM55 °FClear.7 mph15%29.95 "HgN/A
5:00 AM57 °FClear.7 mph15%29.95 "HgN/A
4:30 AM55 °FClear.9 mph15%29.95 "HgN/A
4:00 AM55 °FClear.8 mph15%29.95 "HgN/A
3:30 AM55 °FClear.8 mph14%29.98 "HgN/A
2:30 AM50 °FClear.5 mph19%29.98 "HgN/A
2:00 AM50 °FClear.5 mph25%29.98 "HgN/A
1:30 AM57 °FClear.7 mph14%30.01 "HgN/A
1:00 AM55 °FClear.7 mph16%30.01 "HgN/A
12:30 AM57 °FClear.7 mph17%30.04 "HgN/A
12:00 AM55 °FClear.5 mph19%30.04 "HgN/A
11:30 PM
Sep 22
52 °FClear.1 mph22%30.04 "HgN/A
11:00 PM54 °FClear.7 mph19%30.04 "HgN/A
10:30 PM61 °FClear.7 mph13%30.04 "HgN/A
10:00 PM61 °FClear.9 mph13%30.04 "HgN/A
9:30 PM63 °FClear.6 mph9%30.04 "HgN/A
9:00 PM61 °FClear.8 mph15%30.04 "HgN/A
8:30 PM63 °FClear.7 mph14%30.04 "HgN/A
8:00 PM66 °FClear.8 mph9%30.04 "HgN/A
7:30 PM70 °FClear.8 mph5%30.01 "HgN/A
7:00 PM68 °FClear.7 mph8%30.04 "HgN/A
6:30 PM73 °FClear.9 mph4%30.01 "HgN/A
6:00 PM77 °FClear.10 mph3%30.01 "HgN/A
5:30 PM77 °FSunny.10 mph2%30.01 "HgN/A
5:00 PM79 °FSunny.13 mph3%30.01 "Hg10 mi
4:30 PM79 °FPassing clouds.9 mph5%30.01 "HgN/A
4:00 PM79 °FDuststorm.9 mph5%30.01 "HgN/A
3:30 PM79 °FPassing clouds.8 mph3%30.01 "HgN/A
2:30 PM77 °FPassing clouds.7 mph4%30.04 "HgN/A
2:00 PM77 °FDuststorm.10 mph4%30.04 "HgN/A
1:30 PM77 °FPassing clouds.8 mph5%30.07 "HgN/A
1:00 PM75 °FDuststorm.6 mph8%30.09 "HgN/A
12:30 PM75 °FPassing clouds.9 mph6%30.09 "HgN/A
12:00 PM73 °FPassing clouds.14 mph8%30.12 "HgN/A
Weather by CustomWeather, © 2014

See weather overviewHow to use our weather pages